This is the latest recevied weather packets stored in our database for station/object KC0CAU. If no packets are shown the sender has not sent any weather packets the latest 10 day(s).
| Time | Temp. | Humidity | Pressure | Rain* | Wind** | Luminosity | Snow |
|---|---|---|---|---|---|---|---|
| 1778203844 | 14.44° C | 30% | 1010.4 hPa | 0 mm | - | - | - |
| 1778202951 | 15° C | 29% | 1010.3 hPa | 0 mm | - | - | - |
| 1778202042 | 15.56° C | 26% | 1010.2 hPa | 0 mm | - | - | - |
| 1778201144 | 16.11° C | 26% | 1010.2 hPa | 0 mm | - | - | - |
| 1778200242 | 16.11° C | 25% | 1010.1 hPa | 0 mm | - | - | - |
| 1778199342 | 16.11° C | 24% | 1010.3 hPa | 0 mm | - | - | - |
| 1778198440 | 16.67° C | 24% | 1010.4 hPa | 0 mm | - | - | - |
| 1778197538 | 16.67° C | 24% | 1010.5 hPa | 0 mm | - | - | - |
| 1778196654 | 16.67° C | 24% | 1010.4 hPa | 0 mm | - | - | - |
| 1778195739 | 16.67° C | 24% | 1010.5 hPa | 0 mm | - | - | - |
| 1778194836 | 17.22° C | 25% | 1010.5 hPa | 0 mm | - | - | - |
| 1778193934 | 17.22° C | 23% | 1010.6 hPa | 0 mm | - | - | - |
| 1778193033 | 17.22° C | 24% | 1010.8 hPa | 0 mm | - | - | - |
| 1778192136 | 17.22° C | 25% | 1011 hPa | 0 mm | - | - | - |
| 1778191231 | 17.22° C | 26% | 1011 hPa | 0 mm | - | - | - |
| 1778190329 | 16.67° C | 25% | 1011.1 hPa | 0 mm | - | - | - |
| 1778189434 | 17.22° C | 25% | 1011.3 hPa | 0 mm | - | - | - |
| 1778188526 | 16.67° C | 25% | 1011.5 hPa | 0 mm | - | - | - |
| 1778187624 | 16.67° C | 23% | 1011.6 hPa | 0 mm | - | - | - |
| 1778186723 | 16.11° C | 27% | 1011.8 hPa | 0 mm | - | - | - |
| 1778185821 | 16.67° C | 25% | 1012.1 hPa | 0 mm | - | - | - |
| 1778184919 | 15.56° C | 26% | 1012.1 hPa | 0 mm | - | - | - |
| 1778184017 | 16.11° C | 26% | 1012.3 hPa | 0 mm | - | - | - |
| 1778183114 | 15.56° C | 26% | 1012.4 hPa | 0 mm | - | - | - |
| 1778182215 | 15° C | 27% | 1012.5 hPa | 0 mm | - | - | - |
* Rain latest hour (hover to see other rain measurements)
** Current wind speed in m/s (hover to see current wind gust speed)